Year,Month,Day,Hour,Minute,Value (Times are PST for temperature in C)
2010,07,06,00,00,14.10
2010,07,06,00,01,14.10
2010,07,06,00,02,14.10
2010,07,06,00,03,14.10
2010,07,06,00,04,14.10
2010,07,06,00,05,14.20
2010,07,06,00,06,14.20
2010,07,06,00,07,14.20
2010,07,06,00,08,14.20
2010,07,06,00,09,14.20
2010,07,06,00,10,14.20
2010,07,06,00,11,14.20
2010,07,06,00,12,14.30
2010,07,06,00,13,14.20
2010,07,06,00,14,14.20
2010,07,06,00,15,14.20
2010,07,06,00,16,14.20
2010,07,06,00,17,14.20
2010,07,06,00,18,14.20
2010,07,06,00,19,14.20
2010,07,06,00,20,14.20
2010,07,06,00,21,14.20
2010,07,06,00,22,14.20
2010,07,06,00,23,14.20
2010,07,06,00,24,14.20
2010,07,06,00,25,14.20
2010,07,06,00,26,14.20
2010,07,06,00,27,14.20
2010,07,06,00,28,14.20
2010,07,06,00,29,14.20
2010,07,06,00,30,14.20
2010,07,06,00,31,14.20
2010,07,06,00,32,14.20
2010,07,06,00,33,14.20
2010,07,06,00,34,14.20
2010,07,06,00,35,14.20
2010,07,06,00,36,14.10
2010,07,06,00,37,14.10
2010,07,06,00,38,14.10
2010,07,06,00,39,14.10
2010,07,06,00,40,14.10
2010,07,06,00,41,14.10
2010,07,06,00,42,14.10
2010,07,06,00,43,14.10
2010,07,06,00,44,14.10
2010,07,06,00,45,14.10
2010,07,06,00,46,14.10
2010,07,06,00,47,14.10
2010,07,06,00,48,14.10
2010,07,06,00,49,14.10
2010,07,06,00,50,14.10
2010,07,06,00,51,14.10
2010,07,06,00,52,14.10
2010,07,06,00,53,14.00
2010,07,06,00,54,14.00
2010,07,06,00,55,14.00
2010,07,06,00,56,13.90
2010,07,06,00,57,13.90
2010,07,06,00,58,13.90
2010,07,06,00,59,14.00
2010,07,06,01,00,14.00
2010,07,06,01,01,14.00
2010,07,06,01,02,14.00
2010,07,06,01,03,14.00
2010,07,06,01,04,14.00
2010,07,06,01,05,14.00
2010,07,06,01,06,14.00
2010,07,06,01,07,14.00
2010,07,06,01,08,13.90
2010,07,06,01,09,13.90
2010,07,06,01,10,13.90
2010,07,06,01,11,13.90
2010,07,06,01,12,13.90
2010,07,06,01,13,13.90
2010,07,06,01,14,13.90
2010,07,06,01,15,13.90
2010,07,06,01,16,13.90
2010,07,06,01,17,13.90
2010,07,06,01,18,13.80
2010,07,06,01,19,13.80
2010,07,06,01,20,13.80
2010,07,06,01,21,13.70
2010,07,06,01,22,13.70
2010,07,06,01,23,13.70
2010,07,06,01,24,13.70
2010,07,06,01,25,13.60
2010,07,06,01,26,13.60
2010,07,06,01,27,13.40
2010,07,06,01,28,13.30
2010,07,06,01,29,13.30
2010,07,06,01,30,13.20
2010,07,06,01,31,13.20
2010,07,06,01,32,13.20
2010,07,06,01,33,13.10
2010,07,06,01,34,13.10
2010,07,06,01,35,13.10
2010,07,06,01,36,13.00
2010,07,06,01,37,13.00
2010,07,06,01,38,12.90
2010,07,06,01,39,12.90
2010,07,06,01,40,12.90
2010,07,06,01,41,12.80
2010,07,06,01,42,12.80
2010,07,06,01,43,12.70
2010,07,06,01,44,12.70
2010,07,06,01,45,12.70
2010,07,06,01,46,12.60
2010,07,06,01,47,12.60
2010,07,06,01,48,12.60
2010,07,06,01,49,12.50
2010,07,06,01,50,12.50
2010,07,06,01,51,12.50
2010,07,06,01,52,12.40
2010,07,06,01,53,12.40
2010,07,06,01,54,12.30
2010,07,06,01,55,12.30
2010,07,06,01,56,12.30
2010,07,06,01,57,12.20
2010,07,06,01,58,12.20
2010,07,06,01,59,12.10
2010,07,06,02,00,12.10
2010,07,06,02,01,12.10
2010,07,06,02,02,12.10
2010,07,06,02,03,12.00
2010,07,06,02,04,12.00
2010,07,06,02,05,12.00
2010,07,06,02,06,12.00
2010,07,06,02,07,12.00
2010,07,06,02,08,12.00
2010,07,06,02,09,12.00
2010,07,06,02,10,12.00
2010,07,06,02,11,12.00
2010,07,06,02,12,12.00
2010,07,06,02,13,12.00
2010,07,06,02,14,12.10
2010,07,06,02,15,12.10
2010,07,06,02,16,12.10
2010,07,06,02,17,12.10
2010,07,06,02,18,12.00
2010,07,06,02,19,12.00
2010,07,06,02,20,12.00
2010,07,06,02,21,11.90
2010,07,06,02,22,11.90
2010,07,06,02,23,11.90
2010,07,06,02,24,11.90
2010,07,06,02,25,11.90
2010,07,06,02,26,11.90
2010,07,06,02,27,11.80
2010,07,06,02,28,11.70
2010,07,06,02,29,11.70
2010,07,06,02,30,11.60
2010,07,06,02,31,11.50
2010,07,06,02,32,11.50
2010,07,06,02,33,11.40
2010,07,06,02,34,11.40
2010,07,06,02,35,11.40
2010,07,06,02,36,11.30
2010,07,06,02,37,11.30
2010,07,06,02,38,11.30
2010,07,06,02,39,11.30
2010,07,06,02,40,11.30
2010,07,06,02,41,11.30
2010,07,06,02,42,11.30
2010,07,06,02,43,11.30
2010,07,06,02,44,11.30
2010,07,06,02,45,11.30
2010,07,06,02,46,11.30
2010,07,06,02,47,11.30
2010,07,06,02,48,11.30
2010,07,06,02,49,11.30
2010,07,06,02,50,11.20
2010,07,06,02,51,11.20
2010,07,06,02,52,11.20
2010,07,06,02,53,11.20
2010,07,06,02,54,11.20
2010,07,06,02,55,11.20
2010,07,06,02,56,11.10
2010,07,06,02,57,11.10
2010,07,06,02,58,11.10
2010,07,06,02,59,11.00
2010,07,06,03,00,11.00
2010,07,06,03,01,11.00
2010,07,06,03,02,10.90
2010,07,06,03,03,10.90
2010,07,06,03,04,10.90
2010,07,06,03,05,10.90
2010,07,06,03,06,10.80
2010,07,06,03,07,10.80
2010,07,06,03,08,10.80
2010,07,06,03,09,10.80
2010,07,06,03,10,10.80
2010,07,06,03,11,10.80
2010,07,06,03,12,10.80
2010,07,06,03,13,10.80
2010,07,06,03,14,10.80
2010,07,06,03,15,10.90
2010,07,06,03,16,11.00
2010,07,06,03,17,11.00
2010,07,06,03,18,11.00
2010,07,06,03,19,11.10
2010,07,06,03,20,11.10
2010,07,06,03,21,11.10
2010,07,06,03,22,11.10
2010,07,06,03,23,11.10
2010,07,06,03,24,11.00
2010,07,06,03,25,11.00
2010,07,06,03,26,10.90
2010,07,06,03,27,10.90
2010,07,06,03,28,10.90
2010,07,06,03,29,10.90
2010,07,06,03,30,10.90
2010,07,06,03,31,10.90
2010,07,06,03,32,10.90
2010,07,06,03,33,10.90
2010,07,06,03,34,10.90
2010,07,06,03,35,10.90
2010,07,06,03,36,10.80
2010,07,06,03,37,10.80
2010,07,06,03,38,10.80
2010,07,06,03,39,10.70
2010,07,06,03,40,10.70
2010,07,06,03,41,10.70
2010,07,06,03,42,10.70
2010,07,06,03,43,10.70
2010,07,06,03,44,10.70
2010,07,06,03,45,10.70
2010,07,06,03,46,10.70
2010,07,06,03,47,10.60
2010,07,06,03,48,10.60
2010,07,06,03,49,10.60
2010,07,06,03,50,10.60
2010,07,06,03,51,10.60
2010,07,06,03,52,10.60
2010,07,06,03,53,10.60
2010,07,06,03,54,10.60
2010,07,06,03,55,10.60
2010,07,06,03,56,10.60
2010,07,06,03,57,10.60
2010,07,06,03,58,10.60
2010,07,06,03,59,10.60
2010,07,06,04,00,10.60
2010,07,06,04,01,10.60
2010,07,06,04,02,10.60
2010,07,06,04,03,10.60
2010,07,06,04,04,10.60
2010,07,06,04,05,10.60
2010,07,06,04,06,10.60
2010,07,06,04,07,10.60
2010,07,06,04,08,10.60
2010,07,06,04,09,10.60
2010,07,06,04,10,10.60
2010,07,06,04,11,10.60
2010,07,06,04,12,10.60
2010,07,06,04,13,10.60
2010,07,06,04,14,10.60
2010,07,06,04,15,10.60
2010,07,06,04,16,10.60
2010,07,06,04,17,10.60
2010,07,06,04,18,10.50
2010,07,06,04,19,10.40
2010,07,06,04,20,10.30
2010,07,06,04,21,10.30
2010,07,06,04,22,10.20
2010,07,06,04,23,10.20
2010,07,06,04,24,10.20
2010,07,06,04,25,10.20
2010,07,06,04,26,10.20
2010,07,06,04,27,10.20
2010,07,06,04,28,10.20
2010,07,06,04,29,10.20
2010,07,06,04,30,10.20
2010,07,06,04,31,10.20
2010,07,06,04,32,10.20
2010,07,06,04,33,10.20
2010,07,06,04,34,10.20
2010,07,06,04,35,10.20
2010,07,06,04,36,10.20
2010,07,06,04,37,10.20
2010,07,06,04,38,10.20
2010,07,06,04,39,10.20
2010,07,06,04,40,10.20
2010,07,06,04,41,10.20
2010,07,06,04,42,10.20
2010,07,06,04,43,10.20
2010,07,06,04,44,10.20
2010,07,06,04,45,10.20
2010,07,06,04,46,10.20
2010,07,06,04,47,10.20
2010,07,06,04,48,10.20
2010,07,06,04,49,10.20
2010,07,06,04,50,10.20
2010,07,06,04,51,10.20
2010,07,06,04,52,10.20
2010,07,06,04,53,10.20
2010,07,06,04,54,10.20
2010,07,06,04,55,10.20
2010,07,06,04,56,10.20
2010,07,06,04,57,10.30
2010,07,06,04,58,10.30
2010,07,06,04,59,10.30
2010,07,06,05,00,10.30
2010,07,06,05,01,10.40
2010,07,06,05,02,10.40
2010,07,06,05,03,10.40
2010,07,06,05,04,10.40
2010,07,06,05,05,10.40
2010,07,06,05,06,10.40
2010,07,06,05,07,10.40
2010,07,06,05,08,10.50
2010,07,06,05,09,10.40
2010,07,06,05,10,10.40
2010,07,06,05,11,10.40
2010,07,06,05,12,10.40
2010,07,06,05,13,10.40
2010,07,06,05,14,10.30
2010,07,06,05,15,10.30
2010,07,06,05,16,10.20
2010,07,06,05,17,10.20
2010,07,06,05,18,10.10
2010,07,06,05,19,10.10
2010,07,06,05,20,10.10
2010,07,06,05,21,10.00
2010,07,06,05,22,9.90
2010,07,06,05,23,9.90
2010,07,06,05,24,9.90
2010,07,06,05,25,9.80
2010,07,06,05,26,9.80
2010,07,06,05,27,9.80
2010,07,06,05,28,9.80
2010,07,06,05,29,9.70
2010,07,06,05,30,9.70
2010,07,06,05,31,9.70
2010,07,06,05,32,9.60
2010,07,06,05,33,9.60
2010,07,06,05,34,9.60
2010,07,06,05,35,9.60
2010,07,06,05,36,9.60
2010,07,06,05,37,9.50
2010,07,06,05,38,9.50
2010,07,06,05,39,9.40
2010,07,06,05,40,9.40
2010,07,06,05,41,9.40
2010,07,06,05,42,9.40
2010,07,06,05,43,9.40
2010,07,06,05,44,9.40
2010,07,06,05,45,9.40
2010,07,06,05,46,9.40
2010,07,06,05,47,9.40
2010,07,06,05,48,9.40
2010,07,06,05,49,9.50
2010,07,06,05,50,9.50
2010,07,06,05,51,9.50
2010,07,06,05,52,9.50
2010,07,06,05,53,9.50
2010,07,06,05,54,9.50
2010,07,06,05,55,9.50
2010,07,06,05,56,9.60
2010,07,06,05,57,9.60
2010,07,06,05,58,9.60
2010,07,06,05,59,9.60
2010,07,06,06,00,9.60
2010,07,06,06,01,9.60
2010,07,06,06,02,9.60
2010,07,06,06,03,9.70
2010,07,06,06,04,9.70
2010,07,06,06,05,9.80
2010,07,06,06,06,9.90
2010,07,06,06,07,10.00
2010,07,06,06,08,10.00
2010,07,06,06,09,10.10
2010,07,06,06,10,10.20
2010,07,06,06,11,10.30
2010,07,06,06,12,10.30
2010,07,06,06,13,10.30
2010,07,06,06,14,10.30
2010,07,06,06,15,10.30
2010,07,06,06,16,10.30
2010,07,06,06,17,10.30
2010,07,06,06,18,10.30
2010,07,06,06,19,10.30
2010,07,06,06,20,10.30
2010,07,06,06,21,10.30
2010,07,06,06,22,10.30
2010,07,06,06,23,10.40
2010,07,06,06,24,10.40
2010,07,06,06,25,10.40
2010,07,06,06,26,10.50
2010,07,06,06,27,10.50
2010,07,06,06,28,10.60
2010,07,06,06,29,10.60
2010,07,06,06,30,10.70
2010,07,06,06,31,10.70
2010,07,06,06,32,10.70
2010,07,06,06,33,10.70
2010,07,06,06,34,10.70
2010,07,06,06,35,10.70
2010,07,06,06,36,10.70
2010,07,06,06,37,10.80
2010,07,06,06,38,10.80
2010,07,06,06,39,10.90
2010,07,06,06,40,10.90
2010,07,06,06,41,11.00
2010,07,06,06,42,11.10
2010,07,06,06,43,11.20
2010,07,06,06,44,11.20
2010,07,06,06,45,11.30
2010,07,06,06,46,11.40
2010,07,06,06,47,11.40
2010,07,06,06,48,11.50
2010,07,06,06,49,11.60
2010,07,06,06,50,11.60
2010,07,06,06,51,11.70
2010,07,06,06,52,11.80
2010,07,06,06,53,11.80
2010,07,06,06,54,11.90
2010,07,06,06,55,12.00
2010,07,06,06,56,12.00
2010,07,06,06,57,12.10
2010,07,06,06,58,12.10
2010,07,06,06,59,12.10
2010,07,06,07,00,12.20
2010,07,06,07,01,12.20
2010,07,06,07,02,12.20
2010,07,06,07,03,12.20
2010,07,06,07,04,12.30
2010,07,06,07,05,12.30
2010,07,06,07,06,12.30
2010,07,06,07,07,12.30
2010,07,06,07,08,12.30
2010,07,06,07,09,12.40
2010,07,06,07,10,12.40
2010,07,06,07,11,12.40
2010,07,06,07,12,12.40
2010,07,06,07,13,12.50
2010,07,06,07,14,12.50
2010,07,06,07,15,12.60
2010,07,06,07,16,12.70
2010,07,06,07,17,12.80
2010,07,06,07,18,13.00
2010,07,06,07,19,13.10
2010,07,06,07,20,13.20
2010,07,06,07,21,13.40
2010,07,06,07,22,13.40
2010,07,06,07,23,13.50
2010,07,06,07,24,13.60
2010,07,06,07,25,13.80
2010,07,06,07,26,13.90
2010,07,06,07,27,14.00
2010,07,06,07,28,14.00
2010,07,06,07,29,14.10
2010,07,06,07,30,14.20
2010,07,06,07,31,14.30
2010,07,06,07,32,14.30
2010,07,06,07,33,14.40
2010,07,06,07,34,14.40
2010,07,06,07,35,14.50
2010,07,06,07,36,14.50
2010,07,06,07,37,14.60
2010,07,06,07,38,14.60
2010,07,06,07,39,14.60
2010,07,06,07,40,14.70
2010,07,06,07,41,14.70
2010,07,06,07,42,14.70
2010,07,06,07,43,14.80
2010,07,06,07,44,14.80
2010,07,06,07,45,14.80
2010,07,06,07,46,14.90
2010,07,06,07,47,14.90
2010,07,06,07,48,15.00
2010,07,06,07,49,15.00
2010,07,06,07,50,15.00
2010,07,06,07,51,15.00
2010,07,06,07,52,15.00
2010,07,06,07,53,15.00
2010,07,06,07,54,15.00
2010,07,06,07,55,15.00
2010,07,06,07,56,15.00
2010,07,06,07,57,15.00
2010,07,06,07,58,15.00
2010,07,06,07,59,15.00
2010,07,06,08,00,15.00
2010,07,06,08,01,15.00
2010,07,06,08,02,15.00
2010,07,06,08,03,15.00
2010,07,06,08,04,15.00
2010,07,06,08,05,15.10
2010,07,06,08,06,15.10
2010,07,06,08,07,15.20
2010,07,06,08,08,15.20
2010,07,06,08,09,15.20
2010,07,06,08,10,15.20
2010,07,06,08,11,15.20
2010,07,06,08,12,15.20
2010,07,06,08,13,15.30
2010,07,06,08,14,15.30
2010,07,06,08,15,15.30
2010,07,06,08,16,15.40
2010,07,06,08,17,15.40
2010,07,06,08,18,15.40
2010,07,06,08,19,15.40
2010,07,06,08,20,15.50
2010,07,06,08,21,15.50
2010,07,06,08,22,15.50
2010,07,06,08,23,15.50
2010,07,06,08,24,15.60
2010,07,06,08,25,15.60
2010,07,06,08,26,15.60
2010,07,06,08,27,15.60
2010,07,06,08,28,15.60
2010,07,06,08,29,15.60
2010,07,06,08,30,15.60
2010,07,06,08,31,15.60
2010,07,06,08,32,15.60
2010,07,06,08,33,15.60
2010,07,06,08,34,15.60
2010,07,06,08,35,15.60
2010,07,06,08,36,15.70
2010,07,06,08,37,15.70
2010,07,06,08,38,15.70
2010,07,06,08,39,15.80
2010,07,06,08,40,15.80
2010,07,06,08,41,15.80
2010,07,06,08,42,15.80
2010,07,06,08,43,15.80
2010,07,06,08,44,15.80
2010,07,06,08,45,15.80
2010,07,06,08,46,15.80
2010,07,06,08,47,15.90
2010,07,06,08,48,15.90
2010,07,06,08,49,15.90
2010,07,06,08,50,15.90
2010,07,06,08,51,16.00
2010,07,06,08,52,15.90
2010,07,06,08,53,15.90
2010,07,06,08,54,15.90
2010,07,06,08,55,15.90
2010,07,06,08,56,15.90
2010,07,06,08,57,15.90
2010,07,06,08,58,15.90
2010,07,06,08,59,16.00
2010,07,06,09,00,16.00
2010,07,06,09,01,16.10
2010,07,06,09,02,16.10
2010,07,06,09,03,16.10
2010,07,06,09,04,16.20
2010,07,06,09,05,16.20
2010,07,06,09,06,16.20
2010,07,06,09,07,16.20
2010,07,06,09,08,16.20
2010,07,06,09,09,16.20
2010,07,06,09,10,16.20
2010,07,06,09,11,16.20
2010,07,06,09,12,16.20
2010,07,06,09,13,16.10
2010,07,06,09,14,16.10
2010,07,06,09,15,16.10
2010,07,06,09,16,16.10
2010,07,06,09,17,16.20
2010,07,06,09,18,16.20
2010,07,06,09,19,16.20
2010,07,06,09,20,16.20
2010,07,06,09,21,16.20
2010,07,06,09,22,16.20
2010,07,06,09,23,16.20
2010,07,06,09,24,16.30
2010,07,06,09,25,16.30
2010,07,06,09,26,16.30
2010,07,06,09,27,16.30
2010,07,06,09,28,16.30
2010,07,06,09,29,16.30
2010,07,06,09,30,16.30
2010,07,06,09,31,16.30
2010,07,06,09,32,16.40
2010,07,06,09,33,16.40
2010,07,06,09,34,16.40
2010,07,06,09,35,16.40
2010,07,06,09,36,16.40
2010,07,06,09,37,16.40
2010,07,06,09,38,16.40
2010,07,06,09,39,16.30
2010,07,06,09,40,16.30
2010,07,06,09,41,16.30
2010,07,06,09,42,16.30
2010,07,06,09,43,16.30
2010,07,06,09,44,16.30
2010,07,06,09,45,16.40
2010,07,06,09,46,16.40
2010,07,06,09,47,16.40
2010,07,06,09,48,16.50
2010,07,06,09,49,16.50
2010,07,06,09,50,16.60
2010,07,06,09,51,16.70
2010,07,06,09,52,16.70
2010,07,06,09,53,16.70
2010,07,06,09,54,16.70
2010,07,06,09,55,16.80
2010,07,06,09,56,16.80
2010,07,06,09,57,16.80
2010,07,06,09,58,16.90
2010,07,06,09,59,17.10
2010,07,06,10,00,17.10
2010,07,06,10,01,17.00
2010,07,06,10,02,16.90
2010,07,06,10,03,16.80
2010,07,06,10,04,16.80
2010,07,06,10,05,16.80
2010,07,06,10,06,16.80
2010,07,06,10,07,16.80
2010,07,06,10,08,16.80
2010,07,06,10,09,16.80
2010,07,06,10,10,16.90
2010,07,06,10,11,17.00
2010,07,06,10,12,17.10
2010,07,06,10,13,17.10
2010,07,06,10,14,17.10
2010,07,06,10,15,17.20
2010,07,06,10,16,17.20
2010,07,06,10,17,17.30
2010,07,06,10,18,17.30
2010,07,06,10,19,17.30
2010,07,06,10,20,17.30
2010,07,06,10,21,17.40
2010,07,06,10,22,17.50
2010,07,06,10,23,17.60
2010,07,06,10,24,17.70
2010,07,06,10,25,17.70
2010,07,06,10,26,17.80
2010,07,06,10,27,17.80
2010,07,06,10,28,17.80
2010,07,06,10,29,17.80
2010,07,06,10,30,17.80
2010,07,06,10,31,17.70
2010,07,06,10,32,17.70
2010,07,06,10,33,17.80
2010,07,06,10,34,17.80
2010,07,06,10,35,17.70
2010,07,06,10,36,17.70
2010,07,06,10,37,17.80
2010,07,06,10,38,17.80
2010,07,06,10,39,17.80
2010,07,06,10,40,17.90
2010,07,06,10,41,18.00
2010,07,06,10,42,18.00
2010,07,06,10,43,18.10
2010,07,06,10,44,18.10
2010,07,06,10,45,18.20
2010,07,06,10,46,18.20
2010,07,06,10,47,18.20
2010,07,06,10,48,18.30
2010,07,06,10,49,18.30
2010,07,06,10,50,18.20
2010,07,06,10,51,18.30
2010,07,06,10,52,18.30
2010,07,06,10,53,18.30
2010,07,06,10,54,18.30
2010,07,06,10,55,18.30
2010,07,06,10,56,18.30
2010,07,06,10,57,18.30
2010,07,06,10,58,18.40
2010,07,06,10,59,18.40
2010,07,06,11,00,18.40
2010,07,06,11,01,18.50
2010,07,06,11,02,18.50
2010,07,06,11,03,18.60
2010,07,06,11,04,18.60
2010,07,06,11,05,18.70
2010,07,06,11,06,18.70
2010,07,06,11,07,18.70
2010,07,06,11,08,18.70
2010,07,06,11,09,18.70
2010,07,06,11,10,18.70
2010,07,06,11,11,18.70
2010,07,06,11,12,18.70
2010,07,06,11,13,18.80
2010,07,06,11,14,18.90
2010,07,06,11,15,18.80
2010,07,06,11,16,18.80
2010,07,06,11,17,18.80
2010,07,06,11,18,18.70
2010,07,06,11,19,18.80
2010,07,06,11,20,18.80
2010,07,06,11,21,18.70
2010,07,06,11,22,18.70
2010,07,06,11,23,18.80
2010,07,06,11,24,18.80
2010,07,06,11,25,18.90
2010,07,06,11,26,18.90
2010,07,06,11,27,18.90
2010,07,06,11,28,18.80
2010,07,06,11,29,18.80
2010,07,06,11,30,18.70
2010,07,06,11,31,18.70
2010,07,06,11,32,18.70
2010,07,06,11,33,18.70
2010,07,06,11,34,18.80
2010,07,06,11,35,18.80
2010,07,06,11,36,18.80
2010,07,06,11,37,18.80
2010,07,06,11,38,18.90
2010,07,06,11,39,19.00
2010,07,06,11,40,19.20
2010,07,06,11,41,19.30
2010,07,06,11,42,19.30
2010,07,06,11,43,19.20
2010,07,06,11,44,19.20
2010,07,06,11,45,19.20
2010,07,06,11,46,19.20
2010,07,06,11,47,19.30
2010,07,06,11,48,19.30
2010,07,06,11,49,19.40
2010,07,06,11,50,19.30
2010,07,06,11,51,19.30
2010,07,06,11,52,19.20
2010,07,06,11,53,19.20
2010,07,06,11,54,19.20
2010,07,06,11,55,19.20
2010,07,06,11,56,19.30
2010,07,06,11,57,19.30
2010,07,06,11,58,19.40
2010,07,06,11,59,19.40
2010,07,06,12,00,19.40
2010,07,06,12,01,19.50
2010,07,06,12,02,19.60
2010,07,06,12,03,19.60
2010,07,06,12,04,19.60
2010,07,06,12,05,19.60
2010,07,06,12,06,19.60
2010,07,06,12,07,19.60
2010,07,06,12,08,19.60
2010,07,06,12,09,19.60
2010,07,06,12,10,19.70
2010,07,06,12,11,19.70
2010,07,06,12,12,19.70
2010,07,06,12,13,19.80
2010,07,06,12,14,19.90
2010,07,06,12,15,19.90
2010,07,06,12,16,19.90
2010,07,06,12,17,19.80
2010,07,06,12,18,19.80
2010,07,06,12,19,19.80
2010,07,06,12,20,19.80
2010,07,06,12,21,19.80
2010,07,06,12,22,19.80
2010,07,06,12,23,19.80
2010,07,06,12,24,19.80
2010,07,06,12,25,19.70
2010,07,06,12,26,19.80
2010,07,06,12,27,19.90
2010,07,06,12,28,19.90
2010,07,06,12,29,20.00
2010,07,06,12,30,20.20
2010,07,06,12,31,20.20
2010,07,06,12,32,20.20
2010,07,06,12,33,20.20
2010,07,06,12,34,20.20
2010,07,06,12,35,20.20
2010,07,06,12,36,20.30
2010,07,06,12,37,20.30
2010,07,06,12,38,20.30
2010,07,06,12,39,20.30
2010,07,06,12,40,20.20
2010,07,06,12,41,20.20
2010,07,06,12,42,20.20
2010,07,06,12,43,20.20
2010,07,06,12,44,20.20
2010,07,06,12,45,20.30
2010,07,06,12,46,20.30
2010,07,06,12,47,20.40
2010,07,06,12,48,20.40
2010,07,06,12,49,20.40
2010,07,06,12,50,20.30
2010,07,06,12,51,20.30
2010,07,06,12,52,20.40
2010,07,06,12,53,20.50
2010,07,06,12,54,20.60
2010,07,06,12,55,20.70
2010,07,06,12,56,20.70
2010,07,06,12,57,20.70
2010,07,06,12,58,20.60
2010,07,06,12,59,20.60
2010,07,06,13,00,20.60
2010,07,06,13,01,20.50
2010,07,06,13,02,20.50
2010,07,06,13,03,20.60
2010,07,06,13,04,20.70
2010,07,06,13,05,20.70
2010,07,06,13,06,20.90
2010,07,06,13,07,21.00
2010,07,06,13,08,20.90
2010,07,06,13,09,20.90
2010,07,06,13,10,20.90
2010,07,06,13,11,20.80
2010,07,06,13,12,20.80
2010,07,06,13,13,20.80
2010,07,06,13,14,20.80
2010,07,06,13,15,20.90
2010,07,06,13,16,21.00
2010,07,06,13,17,21.00
2010,07,06,13,18,21.00
2010,07,06,13,19,21.00
2010,07,06,13,20,20.90
2010,07,06,13,21,20.80
2010,07,06,13,22,20.80
2010,07,06,13,23,20.70
2010,07,06,13,24,20.80
2010,07,06,13,25,20.80
2010,07,06,13,26,20.80
2010,07,06,13,27,20.80
2010,07,06,13,28,20.80
2010,07,06,13,29,20.90
2010,07,06,13,30,21.00
2010,07,06,13,31,21.10
2010,07,06,13,32,21.20
2010,07,06,13,33,21.20
2010,07,06,13,34,21.30
2010,07,06,13,35,21.50
2010,07,06,13,36,21.70
2010,07,06,13,37,21.80
2010,07,06,13,38,21.80
2010,07,06,13,39,21.80
2010,07,06,13,40,21.80
2010,07,06,13,41,21.80
2010,07,06,13,42,21.80
2010,07,06,13,43,21.90
2010,07,06,13,44,22.00
2010,07,06,13,45,22.00
2010,07,06,13,46,22.10
2010,07,06,13,47,22.10
2010,07,06,13,48,22.00
2010,07,06,13,49,22.00
2010,07,06,13,50,22.00
2010,07,06,13,51,21.90
2010,07,06,13,52,22.00
2010,07,06,13,53,22.10
2010,07,06,13,54,22.20
2010,07,06,13,55,22.20
2010,07,06,13,56,22.10
2010,07,06,13,57,22.00
2010,07,06,13,58,21.90
2010,07,06,13,59,21.80
2010,07,06,14,00,21.80
2010,07,06,14,01,21.80
2010,07,06,14,02,21.80
2010,07,06,14,03,21.80
2010,07,06,14,04,21.80
2010,07,06,14,05,21.90
2010,07,06,14,06,22.00
2010,07,06,14,07,22.00
2010,07,06,14,08,21.90
2010,07,06,14,09,22.00
2010,07,06,14,10,22.20
2010,07,06,14,11,22.30
2010,07,06,14,12,22.30
2010,07,06,14,13,22.50
2010,07,06,14,14,22.50
2010,07,06,14,15,22.50
2010,07,06,14,16,22.40
2010,07,06,14,17,22.40
2010,07,06,14,18,22.50
2010,07,06,14,19,22.50
2010,07,06,14,20,22.60
2010,07,06,14,21,22.70
2010,07,06,14,22,22.60
2010,07,06,14,23,22.60
2010,07,06,14,24,22.50
2010,07,06,14,25,22.40
2010,07,06,14,26,22.30
2010,07,06,14,27,22.30
2010,07,06,14,28,22.30
2010,07,06,14,29,22.40
2010,07,06,14,30,22.60
2010,07,06,14,31,22.80
2010,07,06,14,32,22.80
2010,07,06,14,33,22.80
2010,07,06,14,34,22.70
2010,07,06,14,35,22.60
2010,07,06,14,36,22.60
2010,07,06,14,37,22.60
2010,07,06,14,38,22.60
2010,07,06,14,39,22.70
2010,07,06,14,40,22.60
2010,07,06,14,41,22.70
2010,07,06,14,42,22.80
2010,07,06,14,43,22.70
2010,07,06,14,44,22.60
2010,07,06,14,45,22.60
2010,07,06,14,46,22.70
2010,07,06,14,47,22.90
2010,07,06,14,48,22.90
2010,07,06,14,49,22.80
2010,07,06,14,50,22.70
2010,07,06,14,51,22.70
2010,07,06,14,52,22.70
2010,07,06,14,53,22.70
2010,07,06,14,54,22.70
2010,07,06,14,55,22.70
2010,07,06,14,56,22.60
2010,07,06,14,57,22.50
2010,07,06,14,58,22.50
2010,07,06,14,59,22.60
2010,07,06,15,00,22.60
2010,07,06,15,01,22.60
2010,07,06,15,02,22.70
2010,07,06,15,03,22.90
2010,07,06,15,04,23.00
2010,07,06,15,05,23.10
2010,07,06,15,06,23.20
2010,07,06,15,07,23.30
2010,07,06,15,08,23.30
2010,07,06,15,09,23.20
2010,07,06,15,10,23.20
2010,07,06,15,11,23.30
2010,07,06,15,12,23.20
2010,07,06,15,13,23.20
2010,07,06,15,14,23.20
2010,07,06,15,15,23.20
2010,07,06,15,16,23.20
2010,07,06,15,17,23.20
2010,07,06,15,18,23.20
2010,07,06,15,19,23.20
2010,07,06,15,20,23.30
2010,07,06,15,21,23.40
2010,07,06,15,22,23.40
2010,07,06,15,23,23.60
2010,07,06,15,24,23.60
2010,07,06,15,25,23.50
2010,07,06,15,26,23.40
2010,07,06,15,27,23.30
2010,07,06,15,28,23.20
2010,07,06,15,29,23.20
2010,07,06,15,30,23.20
2010,07,06,15,31,23.20
2010,07,06,15,32,23.20
2010,07,06,15,33,23.20
2010,07,06,15,34,23.10
2010,07,06,15,35,23.00
2010,07,06,15,36,23.10
2010,07,06,15,37,23.10
2010,07,06,15,38,23.10
2010,07,06,15,39,23.10
2010,07,06,15,40,23.30
2010,07,06,15,41,23.30
2010,07,06,15,42,23.40
2010,07,06,15,43,23.40
2010,07,06,15,44,23.30
2010,07,06,15,45,23.30
2010,07,06,15,46,23.30
2010,07,06,15,47,23.40
2010,07,06,15,48,23.40
2010,07,06,15,49,23.40
2010,07,06,15,50,23.50
2010,07,06,15,51,23.40
2010,07,06,15,52,23.40
2010,07,06,15,53,23.40
2010,07,06,15,54,23.40
2010,07,06,15,55,23.40
2010,07,06,15,56,23.40
2010,07,06,15,57,23.30
2010,07,06,15,58,23.30
2010,07,06,15,59,23.40
2010,07,06,16,00,23.50
2010,07,06,16,01,23.50
2010,07,06,16,02,23.40
2010,07,06,16,03,23.50
2010,07,06,16,04,23.50
2010,07,06,16,05,23.40
2010,07,06,16,06,23.40
2010,07,06,16,07,23.50
2010,07,06,16,08,23.50
2010,07,06,16,09,23.60
2010,07,06,16,10,23.50
2010,07,06,16,11,23.50
2010,07,06,16,12,23.50
2010,07,06,16,13,23.50
2010,07,06,16,14,23.50
2010,07,06,16,15,23.50
2010,07,06,16,16,23.60
2010,07,06,16,17,23.60
2010,07,06,16,18,23.70
2010,07,06,16,19,23.80
2010,07,06,16,20,23.90
2010,07,06,16,21,24.00
2010,07,06,16,22,24.10
2010,07,06,16,23,24.20
2010,07,06,16,24,24.20
2010,07,06,16,25,24.30
2010,07,06,16,26,24.40
2010,07,06,16,27,24.40
2010,07,06,16,28,24.30
2010,07,06,16,29,24.10
2010,07,06,16,30,24.00
2010,07,06,16,31,23.90
2010,07,06,16,32,23.80
2010,07,06,16,33,23.80
2010,07,06,16,34,23.80
2010,07,06,16,35,23.70
2010,07,06,16,36,23.80
2010,07,06,16,37,23.80
2010,07,06,16,38,23.90
2010,07,06,16,39,23.80
2010,07,06,16,40,23.80
2010,07,06,16,41,23.80
2010,07,06,16,42,23.80
2010,07,06,16,43,23.90
2010,07,06,16,44,24.00
2010,07,06,16,45,24.10
2010,07,06,16,46,24.10
2010,07,06,16,47,24.10
2010,07,06,16,48,24.10
2010,07,06,16,49,24.10
2010,07,06,16,50,24.20
2010,07,06,16,51,24.20
2010,07,06,16,52,24.20
2010,07,06,16,53,24.20
2010,07,06,16,54,24.20
2010,07,06,16,55,24.10
2010,07,06,16,56,24.00
2010,07,06,16,57,24.00
2010,07,06,16,58,24.00
2010,07,06,16,59,23.90
2010,07,06,17,00,23.90
2010,07,06,17,01,24.00
2010,07,06,17,02,23.90
2010,07,06,17,03,23.90
2010,07,06,17,04,23.90
2010,07,06,17,05,23.90
2010,07,06,17,06,24.00
2010,07,06,17,07,24.10
2010,07,06,17,08,24.10
2010,07,06,17,09,24.20
2010,07,06,17,10,24.20
2010,07,06,17,11,24.20
2010,07,06,17,12,24.20
2010,07,06,17,13,24.20
2010,07,06,17,14,24.20
2010,07,06,17,15,24.10
2010,07,06,17,16,24.10
2010,07,06,17,17,24.10
2010,07,06,17,18,24.10
2010,07,06,17,19,24.20
2010,07,06,17,20,24.10
2010,07,06,17,21,24.20